Location: Saginaw
(43.4195°N, 83.9508°W)
Time: 14:11:58
(UTC-05:00)

Daily predictions for brighter satellites

Satellite Brightness Start Highest point End
(mag) Time Altitude Azimuth Time Altitude Azimuth Time Altitude Azimuth
SPOT 3 Rocket 4.5 18:34:46 10° S 18:39:52 56° W 18:45:01 10° NNW
Cosmos 1378 Rocket 3.5 18:37:04 10° N 18:41:24 85° E 18:45:42 10° S
YAOGAN 1 4.2 18:41:00 10° S 18:45:05 41° W 18:49:12 10° NNW
Cosmos 1908 Rocket 3.7 18:41:55 10° S 18:46:17 83° W 18:50:42 10° N
Cosmos 1315 Rocket 3.8 18:43:19 10° SSW 18:47:11 50° WNW 18:51:02 10° N
FREGAT/IRIS 3.5 18:47:16 10° SE 18:50:01 30° ENE 18:52:46 10° N
Cosmos 2322 Rocket 2.7 18:45:13 10° NNW 18:50:28 39° ENE 18:55:42 10° SE
Cosmos 1782 Rocket 3.6 18:46:48 10° S 18:51:09 65° E 18:55:35 10° NNE
Cosmos 1346 Rocket 2.7 18:51:59 10° N 18:55:58 88° E 18:59:53 10° S
Cosmos 1340 4.4 18:54:33 10° NNE 18:56:43 14° ENE 18:58:22 12° E
Meteor 1-25 Rocket 4.5 18:53:46 10° SSE 18:59:03 46° E 19:04:27 10° NNE
Meteor 1-28 Rocket 3.2 18:55:15 10° NNE 18:59:04 89° ESE 19:02:52 10° SSW
ASTRO F (AKARI) 4.5 18:56:17 10° NNE 19:00:01 78° ESE 19:03:32 10° S
Okean 2 Rocket 3.1 18:56:30 10° S 19:00:54 61° E 19:05:18 10° NNE
COSMO-SKYMED 1 2.9 18:56:54 10° N 19:01:15 71° WNW 19:05:33 10° SSW
ALOS 2.7 19:01:05 10° SE 19:05:24 39° ENE 19:09:45 10° N
HJ-1C 4.2 19:03:02 10° SE 19:06:03 30° ENE 19:09:04 10° N
CENTAUR R/B 3.3 18:58:14 10° NW 19:06:06 83° WSW 19:14:29 10° SSE
COSMOS 2428 4.5 19:03:43 10° NNE 19:06:17 13° NE 19:08:08 11° ENE
Cosmos 1833 Rocket 4.2 19:03:57 10° SW 19:09:09 38° WNW 19:14:23 10° N
Cosmos 1745 Rocket 4.0 19:03:51 10° S 19:10:09 77° E 19:16:28 10° N
SL-8 R/B 4.0 19:06:45 10° WNW 19:11:32 67° SSW 19:16:20 10° SE
H-2A R/B 3.6 19:11:04 10° SE 19:14:12 27° ENE 19:17:22 10° NNE
NOSS 2-2 (E) 3.5 19:10:26 10° SW 19:14:31 87° NW 19:19:20 10° NE
Cosmos 2151 Rocket 3.9 19:14:36 10° SSE 19:18:52 44° E 19:23:10 10° NNE
Cosmos 1818 4.4 19:16:49 10° S 19:21:28 29° ESE 19:24:33 18° ENE
FENGYUN 3A 3.7 19:17:15 10° SSE 19:22:32 59° ENE 19:27:52 10° N
ATLAS CENTAUR R/B 3.8 19:19:03 10° W 19:22:35 22° NW 19:25:57 10° N
Cosmos 1812 2.6 19:19:24 10° N 19:23:17 79° E 19:27:08 10° S
deb Kosmos-1763 4.3 19:21:42 10° S 19:25:21 47° ESE 19:28:55 11° NNE
Cosmos 1386 Rocket 4.4 19:21:03 10° S 19:27:11 79° E 19:33:15 10° N
Cosmos 44 Rocket 3.7 19:25:18 10° NW 19:30:00 61° WSW 19:34:36 10° SSE
DELTA 2 R/B (1) 3.9 19:26:10 10° WSW 19:31:42 59° S 19:35:04 23° ESE
NOSS 2-2 (D) 3.8 19:30:13 10° SW 19:34:15 67° NW 19:39:01 10° NNE
SL-19 R/B 4.2 19:36:01 10° SSE 19:41:36 78° ENE 19:47:31 10° NNW
Cosmos 2292 Rocket 4.0 19:38:39 10° S 19:43:14 71° E 19:49:28 10° NNE
Cosmos 2360 Rocket 2.6 19:39:25 10° NNW 19:44:47 42° ENE 19:46:58 29° ESE
Cosmos 1980 Rocket 4.2 19:40:26 10° NW 19:45:19 30° WSW 19:50:11 10° SSW
Cosmos 1602 4.2 19:42:05 10° SSE 19:51:28 - NNE 19:45:05 37° ESE
Cosmos 1461 2.7 19:43:06 10° NNW 19:47:05 67° NE 19:48:30 38° SE
BREEZE-M DEB (TANK) 4.4 19:45:51 10° SSW 19:47:59 17° SSE 19:47:59 17° SSE
SJ-6B 4.0 19:44:49 10° S 19:48:44 45° W 19:52:35 10° NNW
Cosmos 2219 Rocket 3.9 19:46:07 10° N 19:48:55 15° NE 19:48:55 15° NE
Tiangong 2 1.0 19:48:00 10° W 19:51:03 66° S 19:51:10 65° S
NOSS 2-2 (C) 4.5 19:47:33 10° WSW 19:51:31 47° NW 19:56:00 11° NNE
Cosmos 676 Rocket 4.0 19:47:00 10° S 19:52:04 58° ESE 19:57:11 10° NNE
Helios 1A 3.1 19:52:22 43° ESE 19:53:12 50° ENE 19:57:14 10° N
Cosmos 407 Rocket 3.4 19:48:25 10° SSW 19:53:38 86° ESE 19:58:58 10° NNE
SAR-Lupe-1 4.3 19:58:28 53° NE 19:58:28 53° NE 20:01:31 10° N
Cosmos 1833 4.4 19:54:13 10° S 19:59:39 48° ESE 20:01:51 32° NE
FengYun 1-2 T 4.5 19:54:39 10° S 20:00:06 69° WSW 20:05:36 10° NNW
SAR-Lupe-4 3.4 20:01:42 74° SE 20:01:57 80° ENE 20:05:32 10° N
Cosmos 2333 Rocket 4.0 19:59:06 10° N 20:01:49 16° NE 20:01:49 16° NE
Meteor 1-19 Rocket 4.1 19:57:15 10° N 20:02:54 68° ENE 20:08:13 12° SSE
Cosmos 44 4.1 19:58:52 10° NW 20:03:05 43° WSW 20:06:46 12° S
GEOS 3 Rocket 4.3 20:00:23 10° NNE 20:05:28 53° NW 20:10:34 10° WSW
Resurs 01 Rocket 2.0 20:02:07 10° S 20:06:28 63° WSW 20:10:51 10° NNW
Cosmos 2181 Rocket 3.9 20:03:20 10° N 20:09:34 89° E 20:15:53 10° S
Cosmos 1536 Rocket 4.2 20:05:46 10° NNW 20:10:09 57° W 20:14:32 10° S
Meteor 1-13 Rocket 4.1 20:08:03 10° N 20:13:37 86° W 20:19:12 10° S
SL-16 R/B 3.1 20:08:58 10° NW 20:14:24 49° WSW 20:19:49 10° S
DNEPR-1 R/B 4.4 20:15:03 10° NW 20:19:06 44° WSW 20:20:47 29° S
Helios 1B rocket 4.3 20:27:49 20° SSW 20:27:49 20° SSW 20:29:10 10° SSW
Cosmos 1140 Rocket 3.5 20:22:06 10° S 20:26:23 60° SSE 20:26:23 60° SSE
Cosmos 1633 3.9 20:25:56 10° SSW 20:28:24 35° SW 20:28:24 35° SW
Cosmos 1340 4.0 20:29:04 10° NNW 20:32:38 39° W 20:33:19 36° WSW
Cosmos 2184 Rocket 3.9 20:26:31 10° S 20:32:46 66° E 20:39:00 10° NNE
CZ-2D R/B 4.4 20:32:26 38° SW 20:33:05 42° W 20:36:44 10° NNW
Meteor 1-23 Rocket 4.1 20:27:25 10° N 20:33:15 72° E 20:33:22 72° E
Cosmos 2322 Rocket 3.8 20:29:28 10° NW 20:34:24 32° WSW 20:39:18 10° SSW
Cosmos 2074 Rocket 3.8 20:29:17 10° S 20:35:29 72° E 20:41:44 10° NNE
Cosmos 2322 3.6 20:36:21 10° NNW 20:42:06 82° WSW 20:42:35 74° S
Envisat 3.5 20:44:45 50° N 20:44:45 50° N 20:48:29 10° NNW
SL-08 ROCKET BODY 4.3 20:37:49 10° S 20:43:59 89° W 20:50:14 10° N
Cosmos 1954 Rocket 4.4 20:40:28 10° SSW 20:45:34 60° WNW 20:47:49 33° N
Meteor 1-11 Rocket 4.3 20:42:26 10° SSW 20:48:06 59° WNW 20:53:55 10° N
Meteor 2-4 Rocket 3.8 20:43:28 10° NNW 20:49:05 70° W 20:49:51 61° SW
COSMOS 2428 3.3 20:46:03 10° NNW 20:50:11 47° N 20:50:11 47° N
Cosmos 2237 4.4 20:46:56 10° NNW 20:51:44 63° N 20:51:44 63° N
USA 229 DEB 4.0 20:46:46 10° NNW 20:53:17 53° NNE 20:53:17 53° NNE
USA 229 4.0 20:46:52 10° NNW 20:53:22 52° NNE 20:53:22 52° NNE
Cosmos 2285 Rocket 4.4 20:48:20 10° NNW 20:53:25 51° NNE 20:53:25 51° NNE
Cosmos 1818 4.4 20:59:35 10° WSW 21:04:49 46° NW 21:05:17 45° NW
BREEZE-M DEB (TANK) 4.5 21:03:06 10° WNW 21:04:21 26° W 21:04:21 26° W
USA 215 4.4 21:08:20 30° NNE 21:08:30 31° NNE 21:14:02 10° NW
Cosmos 2237 Rocket 4.1 21:04:25 10° N 21:06:19 19° N 21:06:19 19° N
Cosmos 2360 Rocket 3.7 21:23:44 10° NW 21:28:36 30° WSW 21:28:48 30° WSW
Cosmos 2219 Rocket 4.0 21:28:32 10° NNW 21:30:39 24° NNW 21:30:39 24° NNW
Cosmos 2333 Rocket 4.2 21:42:00 10° NNW 21:43:50 21° NNW 21:43:50 21° NNW
